Weather in Alleroy

Russia / Chechen Republic     43°05′07″N   46°18′04″E
temp.,
°C
wind,
m/s
gust,
m/s
humid.,
%
clouds,
%
prec.,
mm/h
press.,
hPa
HPBL,
m
20 april, tue
tue2000:00+13sse118185 0.0 101514
03:00+12se1181100 0.0 101317
06:00+13sse3365100 0.0 101146
09:00+21se1343100 0.0 1009376
12:00+27se1529100 0.0 10051153
15:00+27w2628100 0.0 10051719
18:00+20s3455100 0.0 100685
21:00+16s3354100 0.0 100854
21 april, wed
wed2100:00+15wsw2368100 0.0 1011109
03:00+13w2693100 0.0 1013535
06:00+11wnw3794100 0.1 1016642
09:00+10w258298 0.1 1018536
12:00+12nw347799 0.1 1017858
15:00+10s1281100 2.3 1018448
18:00+9nw2495100 6.8 1021390
21:00+8n119597 13.4 102161
22 april, thu
thu2200:00+8e1197100 0.2 102169
03:00+8nne1197100 0.2 102173
06:00+8nne129489 0.0 1020131
09:00+9n228792 0.0 1021487
12:00+9nnw2291100 0.2 1022532
15:00+8n2289100 0.4 1022461
18:00+8n1190100 0.1 1022249
21:00+8ne119295 0.1 102174
23 april, fri
fri2300:00+7n129697 0.0 102099
03:00+6n1196100 0.2 1020219
06:00+6w1298100 2.6 1022265
09:00+6wsw1294100 3.1 1023341
12:00+7wnw2594100 0.4 1023637
15:00+7sw248877 0.6 1023399
18:00+9w11813 0.0 102215
21:00+6s22782 0.0 102318
24 april, sat
sat2400:00+6sse22705 0.0 102115
03:00+6sse227285 0.0 102015
06:00+8s1169100 0.0 101914
09:00+12nnw216095 0.0 1019508
12:00+16n32491 0.0 10171169
15:00+16n325321 0.0 10181307
18:00+12nne127512 0.0 1019106
21:00+10s118181 0.0 102012